Temperature
14 14 14 14 14 14 14 14 14 14 14 14 14 14 14 14 14 14 14 14 14 14 14 14 14 14 14 14 14 14 14 14 14 13 13 13 13 13 13 13 13 13 13
13 13 14 14 14 14 14 14 14 14 14 14 14 14 14 14 14 14 14 14 14 14 14 14 14 14 14 14 14 14 14 14 13 13 13 13 13 13 13 13 13 12 12
13 13 13 13 13 13 13 13 13 13 13 13 14 14 14 14 14 14 14 14 14 14 14 14 14 14 14 14 14 14 14 14 13 13 13 13 13 13 13 13 12 12 12
12 12 12 13 13 13 13 13 13 13 13 13 13 13 14 14 14 14 14 14 14 14 14 14 13 14 14 14 14 14 14 14 13 13 13 13 13 13 13 13 12 12 12
12 12 12 12 12 12 12 12 13 12 13 13 13 13 13 13 13 13 13 14 14 14 14 14 13 13 13 13 13 13 13 13 13 13 13 13 13 13 13 12 12 12 12
11 11 11 11 11 12 12 12 12 12 12 12 12 12 12 13 13 13 13 13 13 13 13 13 13 13 13 13 13 13 13 13 13 13 13 13 13 13 12 12 12 12 12
11 11 11 11 11 11 11 11 11 11 12 11 11 11 12 12 12 12 13 13 13 13 13 13 13 13 13 13 13 13 13 13 13 13 13 13 13 12 12 12 12 12 12
10 10 10 10 10 10 11 10 11 11 11 11 11 10 10 11 12 12 13 13 13 13 13 13 13 13 13 13 13 13 13 13 12 12 12 12 12 12 12 12 12 12 12
10 10 10 10 10 10 10 10 10 10 10 10 10 10 10 10 11 12 12 12 12 12 12 12 13 13 12 12 12 12 13 12 12 12 12 12 12 12 12 12 11 11 11
9 9 9 9 9 9 10 10 10 9 9 9 9 9 9 9 10 10 11 11 12 12 12 12 12 12 12 12 12 12 12 12 12 12 12 12 12 12 12 11 11 11 11
8 9 9 9 9 9 9 9 9 9 9 9 9 9 9 9 9 9 9 10 11 11 11 11 11 11 11 12 12 12 12 12 12 11 11 11 11 11 11 11 11 11 11
8 8 8 8 8 8 8 8 8 8 8 8 8 8 8 8 8 9 9 9 9 10 10 11 11 11 11 11 11 11 11 11 11 11 11 11 11 11 11 11 10 10 10
7 7 7 7 8 8 8 8 8 8 8 8 8 8 8 8 8 8 8 8 8 9 9 10 10 10 10 10 10 10 10 10 10 10 10 10 10 10 10 10 10 10 10
6 7 7 7 7 7 7 7 7 7 7 7 7 7 7 7 7 7 7 8 8 8 8 8 9 9 9 9 9 9 9 10 10 10 10 10 10 10 10 10 10 9 9
6 6 6 6 6 7 7 7 7 7 7 7 7 7 7 7 7 7 7 7 7 7 7 7 8 8 8 8 9 9 9 9 9 9 9 9 9 9 9 9 9 9 9
5 5 5 6 6 6 6 6 6 6 6 6 6 6 6 6 6 6 6 6 6 6 6 6 6 7 7 7 7 7 8 8 8 8 8 8 8 8 8 8 8 8 8
5 5 5 5 5 5 5 5 5 5 5 5 5 5 5 5 6 6 6 5 5 5 5 5 5 6 6 6 6 7 7 7 7 7 7 7 8 8 7 8 8 8 7
4 4 5 5 5 5 4 4 4 4 5 4 4 4 4 4 4 4 5 5 5 4 4 4 5 5 5 5 5 6 6 6 6 6 6 7 7 7 7 7 7 7 7
4 4 4 4 4 4 4 4 4 4 4 4 4 4 4 4 4 3 3 3 3 3 3 3 3 4 4 4 4 4 5 5 5 5 5 6 6 6 6 6 6 6 6
3 3 3 3 3 3 3 3 3 3 3 3 3 3 3 3 3 3 3 3 2 2 2 2 2 2 3 3 3 3 4 4 4 4 5 5 5 5 5 5 5 5 5
3 3 3 3 3 3 2 2 2 2 2 2 2 2 2 2 2 2 2 2 2 2 1 1 1 1 1 1 1 2 2 2 3 3 3 4 4 4 4 4 4 4 4
2 2 2 2 2 2 2 1 1 1 1 1 1 1 1 1 1 1 1 0 0 0 0 0 0 0 0 -0 0 0 -0 0 1 1 1 2 3 3 3 3 3 3 3
2 2 1 1 1 1 1 1 1 1 0 0 0 0 0 0 0 -0 -0 -0 -0 -0 -1 -1 -1 -1 -1 -1 -1 -1 -1 -1 -1 -0 -0 1 1 2 2 2 2 2 2
1 1 1 1 0 0 -0 -0 -0 -0 -0 -0 -1 -0 -1 -1 -1 -1 -1 -1 -1 -1 -1 -1 -2 -2 -2 -2 -2 -2 -2 -2 -1 -1 -1 -1 -0 0 1 1 2 2 2
1 1 0 0 -0 -0 -1 -1 -1 -1 -1 -1 -1 -1 -2 -2 -2 -2 -2 -2 -2 -2 -2 -2 -3 -3 -3 -3 -3 -3 -3 -3 -2 -2 -2 -2 -2 -1 -0 1 1 1 1
0 0 -0 -1 -1 -1 -1 -2 -2 -2 -2 -2 -2 -2 -3 -3 -3 -3 -3 -3 -3 -3 -3 -3 -3 -3 -3 -3 -3 -3 -4 -4 -4 -4 -3 -4 -3 -3 -3 -1 -0 0 0
Wind_Speed
2 3 3 4 4 5 5 5 6 6 6 7 8 8 8 10 11 12 12 15 16 17 17 17 16 16 15 15 14 13 12 12 11 10 10 10 9 8 8 7 7 6 6
3 3 3 4 4 5 6 6 6 6 6 6 7 8 9 10 11 12 13 14 16 18 18 18 18 18 17 16 16 15 14 13 13 12 12 11 11 10 9 9 8 8 8
5 4 3 4 5 6 7 6 6 5 5 5 7 8 8 9 10 11 13 13 14 17 19 19 20 19 19 18 17 17 16 15 15 14 13 13 12 11 11 10 10 9 9
6 4 3 5 6 6 5 5 5 5 6 6 6 7 7 7 9 11 12 13 13 14 16 19 20 20 20 20 19 18 17 17 16 16 15 14 14 13 12 12 11 11 10
7 5 4 4 5 4 5 5 5 5 6 6 6 6 6 7 7 8 9 11 13 14 14 16 19 21 21 21 21 20 19 18 18 18 17 16 16 15 14 14 13 13 12
8 6 4 5 4 4 5 5 6 5 5 5 6 7 6 7 7 8 9 9 12 14 15 15 15 17 21 22 22 21 21 20 19 19 19 18 18 17 16 16 15 15 14
7 5 4 4 4 4 5 5 5 6 5 3 3 4 6 7 8 8 8 8 9 12 13 14 14 14 14 19 23 23 22 21 21 20 20 20 20 19 18 18 18 17 17
7 6 4 4 4 5 5 5 5 4 4 4 3 3 4 4 6 8 8 9 9 8 9 12 13 14 14 14 16 21 23 23 22 22 21 21 21 21 20 20 19 18 18
7 6 5 4 4 4 5 5 6 7 6 5 5 4 3 5 3 3 6 8 8 7 8 8 11 14 15 14 14 16 20 21 21 21 21 20 20 21 21 20 19 19 18
7 7 6 5 4 4 4 5 5 6 6 6 4 5 5 3 3 3 3 4 6 7 7 7 7 10 12 12 13 15 16 18 21 21 21 21 21 20 21 20 20 19 18
6 7 6 5 4 4 4 5 5 5 5 6 5 3 5 5 5 4 5 3 3 4 5 5 5 6 9 10 11 12 14 16 19 20 20 20 20 19 18 19 18 18 18
5 6 7 6 5 4 4 4 5 5 5 6 5 4 4 3 4 4 6 5 5 4 4 3 4 4 5 7 9 11 12 14 16 18 20 20 20 20 19 19 18 18 18
5 7 6 6 5 5 4 4 4 4 4 4 4 4 4 4 2 3 5 5 5 4 3 2 3 2 3 4 5 8 10 12 15 17 19 20 19 18 18 18 18 18 18
5 6 6 6 6 6 5 4 3 3 3 4 4 4 4 4 3 3 3 3 4 4 3 3 1 1 1 3 5 6 6 9 11 13 16 17 17 16 16 16 17 18 18
5 6 6 6 6 6 5 4 3 3 3 3 3 3 3 3 2 2 2 3 4 5 5 2 1 1 2 3 5 5 6 9 10 12 13 14 14 13 14 14 14 16 17
5 6 6 6 6 6 6 5 4 4 3 3 2 2 2 2 2 2 2 2 3 5 5 2 2 2 3 4 6 6 6 8 9 10 11 12 13 13 12 12 12 14 14
5 6 6 6 6 6 6 5 5 5 4 4 3 3 3 3 2 2 2 2 2 3 6 4 2 2 3 4 5 6 6 6 7 10 11 11 12 12 11 11 11 12 13
5 5 5 6 6 6 6 6 6 6 5 5 5 4 4 3 3 3 2 2 2 2 4 5 3 3 3 4 5 6 6 7 7 10 11 11 12 12 12 11 11 12 13
5 6 6 6 6 6 6 6 5 5 5 5 5 4 4 4 3 3 3 3 3 3 2 3 4 3 3 4 5 5 6 5 7 9 10 12 12 12 12 12 12 12 12
5 5 6 5 5 5 5 6 5 5 5 5 5 4 4 4 3 3 3 3 3 3 3 3 4 3 3 4 4 5 6 5 7 7 9 10 12 12 13 13 12 12 13
5 5 5 6 6 5 5 5 5 4 5 5 6 5 5 6 6 5 3 3 3 3 3 3 4 4 4 4 5 5 7 7 6 4 5 6 7 7 8 11 12 12 13
4 5 5 5 6 5 8 9 6 5 5 5 5 5 5 6 7 8 8 7 6 4 4 4 4 5 6 5 5 6 6 6 6 3 5 8 6 7 6 7 12 14 15
4 4 5 5 6 7 10 9 9 5 5 5 5 5 5 6 7 5 6 7 7 8 7 4 5 6 6 7 7 7 7 7 8 5 6 8 6 7 6 9 14 15 15
3 3 4 5 5 7 10 9 8 5 4 5 5 5 5 5 6 5 4 5 5 5 6 4 4 5 6 6 6 7 8 8 7 5 4 6 6 6 8 8 14 13 13
2 2 3 4 5 6 9 9 7 3 4 5 6 6 6 5 8 9 5 5 5 5 7 9 9 9 11 11 9 6 6 6 7 5 3 4 5 6 7 7 8 11 12
1 2 3 3 4 5 8 9 7 2 3 4 5 6 8 9 10 9 5 4 5 6 6 7 7 8 8 8 10 5 5 6 6 5 2 3 4 5 5 4 4 6 8
Wind_Direction
275 271 260 251 244 239 231 227 223 218 219 220 220 218 221 222 223 224 230 232 233 235 237 237 234 231 229 228 229 227 223 223 224 225 225 225 227 228 231 233 238 243 249
285 267 258 252 249 243 237 230 228 227 227 224 228 226 227 228 229 229 231 235 236 236 238 239 239 238 234 232 231 230 228 226 227 227 229 231 232 232 234 235 237 241 246
287 274 257 251 253 251 243 237 232 229 232 232 236 236 234 231 232 231 231 233 236 237 238 240 241 240 238 236 234 233 231 229 229 230 231 232 234 234 235 237 238 240 243
299 286 262 256 260 252 241 237 233 233 236 237 240 239 236 234 234 234 233 232 232 236 237 239 241 242 240 239 238 236 234 231 230 231 232 233 235 234 236 239 241 242 243
304 292 273 271 267 249 237 241 236 232 238 241 245 243 239 236 235 233 229 230 230 231 233 236 238 241 241 241 241 241 240 237 234 232 233 235 235 235 238 241 242 242 242
309 300 289 280 273 252 246 242 241 237 237 239 249 250 244 240 234 230 232 232 231 230 230 232 236 241 242 241 242 244 244 243 240 236 234 235 236 237 240 242 242 241 241
315 305 295 283 266 253 251 248 242 243 239 228 240 257 252 237 235 233 231 230 232 231 228 228 231 234 240 241 240 242 245 246 246 243 238 237 236 238 240 242 243 243 243
323 318 302 286 272 264 256 248 240 244 244 215 219 246 265 262 242 237 231 231 234 229 228 230 228 230 235 237 239 238 242 246 248 248 244 239 237 239 241 243 244 245 245
327 320 307 291 279 265 265 257 243 237 244 230 213 216 229 241 267 249 234 232 231 230 233 232 230 230 231 232 238 240 238 241 245 248 247 245 243 242 242 243 244 245 246
330 327 318 305 288 277 269 263 256 246 242 244 235 231 239 226 227 269 271 247 241 240 238 236 232 232 232 233 235 237 238 238 242 247 249 248 247 245 245 245 245 246 247
336 336 329 317 303 292 285 278 269 258 248 248 242 241 245 248 239 241 267 272 269 251 244 242 240 238 234 234 237 241 239 240 245 249 253 253 252 250 250 249 247 248 248
334 341 335 326 311 301 293 286 275 264 257 253 249 242 238 242 240 236 253 263 265 268 255 245 246 248 242 239 242 245 244 246 250 253 256 258 258 256 254 253 252 250 250
332 335 334 328 322 315 308 300 288 276 263 258 253 249 244 249 252 241 248 261 265 269 256 253 246 256 265 261 266 262 257 255 255 258 260 260 260 259 256 254 253 252 252
323 328 329 327 327 324 320 313 300 290 274 257 259 254 250 253 247 243 243 251 267 264 245 246 278 260 291 281 293 283 280 271 264 263 265 266 265 264 261 258 257 256 254
331 337 334 335 338 338 335 329 318 314 305 289 278 271 265 267 264 262 257 246 249 263 265 245 246 318 307 304 305 298 291 286 278 272 269 271 270 267 264 260 260 259 255
343 343 347 350 353 355 355 352 343 337 335 324 311 305 296 295 294 292 282 276 262 260 266 268 265 306 321 327 317 306 298 300 291 285 282 277 270 267 267 265 263 261 255
352 356 358 2 6 7 6 4 1 355 354 346 345 346 333 329 326 329 323 317 299 280 271 283 296 317 322 324 321 321 310 300 299 293 283 284 280 271 270 269 266 263 257
1 3 8 11 12 10 10 11 8 6 4 3 1 6 1 4 2 356 355 343 319 306 282 285 297 310 305 316 310 310 314 312 302 298 291 286 286 277 269 269 269 266 261
8 10 16 17 15 13 15 14 16 17 15 11 9 12 7 14 7 358 358 347 329 325 307 293 298 300 296 311 311 308 305 299 306 302 298 289 286 286 281 272 269 268 265
15 12 13 13 11 12 17 16 15 20 21 17 15 17 15 13 359 353 356 344 332 325 319 308 302 301 297 302 309 309 311 307 305 304 300 299 297 289 284 283 276 269 265
20 14 14 12 8 10 16 19 14 23 26 23 20 16 13 17 11 6 357 340 333 322 316 309 306 308 308 316 316 312 306 309 298 294 301 296 295 285 282 281 276 273 273
19 21 19 12 8 10 17 24 29 28 26 26 16 6 8 11 10 7 2 356 348 328 313 303 300 304 305 304 305 306 303 308 298 306 309 298 288 281 276 272 280 283 277
19 21 15 15 9 6 16 23 33 33 26 17 8 2 360 357 358 344 348 354 354 351 339 311 300 300 302 305 301 298 294 290 285 294 302 291 287 278 279 286 289 285 281
19 15 12 9 5 4 13 21 29 32 23 10 1 354 348 342 342 339 342 345 342 340 335 332 304 299 302 302 292 289 289 291 284 282 276 277 288 283 289 285 291 287 285
16 9 6 7 2 352 5 15 25 19 14 3 356 354 349 338 340 345 347 336 331 329 339 342 335 330 327 326 323 312 308 304 299 296 282 275 289 295 283 273 283 291 289
16 4 5 1 353 343 357 9 18 26 7 353 350 350 354 351 347 352 352 340 333 326 331 334 336 333 329 328 334 325 303 297 297 295 286 290 288 307 299 271 272 284 286
Height
1517 1517 1518 1519 1519 1520 1521 1522 1523 1524 1525 1526 1526 1527 1528 1529 1530 1531 1532 1534 1535 1535 1536 1537 1538 1538 1539 1539 1540 1540 1540 1541 1541 1541 1541 1542 1542 1541 1541 1541 1540 1540 1539
1512 1513 1514 1514 1515 1516 1517 1518 1519 1519 1520 1521 1522 1523 1524 1525 1526 1527 1528 1529 1530 1532 1533 1533 1534 1535 1536 1536 1537 1537 1538 1538 1538 1539 1539 1539 1539 1539 1539 1539 1538 1538 1537
1508 1508 1509 1510 1511 1512 1512 1513 1514 1515 1515 1516 1517 1518 1519 1520 1521 1522 1523 1524 1526 1527 1528 1529 1530 1531 1532 1533 1533 1534 1534 1535 1535 1536 1536 1536 1536 1536 1536 1536 1536 1535 1535
1504 1504 1504 1504 1506 1507 1507 1508 1509 1509 1510 1511 1512 1513 1514 1515 1516 1517 1518 1519 1520 1521 1523 1524 1525 1526 1527 1528 1529 1530 1530 1531 1531 1532 1532 1533 1533 1533 1533 1533 1533 1533 1532
1499 1499 1499 1499 1500 1501 1502 1503 1503 1504 1505 1505 1506 1507 1508 1509 1510 1511 1512 1513 1515 1516 1517 1518 1520 1521 1522 1523 1524 1525 1526 1527 1527 1528 1528 1529 1529 1529 1529 1529 1529 1529 1529
1495 1495 1494 1494 1495 1495 1496 1497 1498 1499 1499 1500 1501 1501 1502 1502 1503 1504 1506 1507 1508 1510 1511 1512 1514 1515 1516 1518 1519 1520 1521 1522 1522 1523 1523 1524 1524 1525 1525 1525 1525 1525 1525
1491 1490 1490 1490 1490 1490 1491 1492 1492 1493 1494 1495 1496 1495 1495 1496 1497 1497 1499 1500 1502 1503 1504 1506 1507 1508 1510 1511 1513 1514 1515 1516 1516 1517 1518 1518 1519 1519 1520 1520 1521 1521 1521
1487 1486 1485 1485 1485 1485 1486 1487 1487 1488 1488 1490 1491 1490 1489 1489 1489 1491 1492 1494 1495 1497 1498 1499 1500 1502 1503 1504 1506 1507 1508 1509 1510 1511 1512 1512 1513 1514 1514 1515 1515 1516 1516
1483 1482 1481 1481 1481 1481 1481 1481 1482 1482 1483 1484 1485 1486 1485 1483 1483 1484 1485 1487 1488 1490 1491 1493 1493 1495 1496 1497 1498 1500 1501 1502 1503 1504 1505 1506 1507 1507 1508 1508 1509 1510 1510
1479 1478 1477 1477 1477 1476 1476 1476 1477 1477 1478 1477 1479 1480 1481 1480 1480 1478 1479 1480 1482 1483 1484 1486 1487 1488 1489 1490 1491 1492 1493 1495 1496 1497 1498 1499 1500 1501 1501 1502 1502 1503 1504
1475 1474 1473 1473 1472 1472 1471 1471 1472 1472 1472 1472 1473 1473 1474 1474 1474 1474 1473 1474 1475 1477 1478 1479 1480 1481 1481 1482 1483 1484 1485 1487 1488 1489 1490 1491 1492 1493 1494 1495 1495 1496 1497
1472 1471 1470 1469 1468 1467 1467 1467 1467 1467 1467 1467 1468 1468 1468 1469 1468 1469 1469 1469 1469 1470 1472 1473 1473 1474 1474 1475 1475 1476 1477 1479 1480 1481 1482 1483 1484 1485 1486 1487 1487 1489 1490
1469 1468 1467 1466 1465 1464 1463 1463 1462 1462 1462 1462 1462 1463 1463 1464 1464 1465 1465 1464 1464 1464 1465 1466 1466 1467 1467 1468 1468 1469 1470 1471 1472 1473 1474 1474 1475 1476 1477 1478 1479 1480 1481
1466 1465 1464 1463 1462 1461 1460 1459 1458 1458 1458 1458 1458 1458 1458 1459 1459 1460 1460 1460 1459 1459 1459 1459 1460 1461 1461 1461 1461 1462 1462 1462 1464 1464 1465 1465 1466 1467 1468 1469 1470 1471 1473
1464 1463 1461 1460 1459 1458 1456 1455 1454 1454 1454 1453 1453 1453 1453 1453 1454 1454 1455 1455 1456 1454 1453 1453 1454 1454 1455 1455 1455 1455 1455 1455 1455 1455 1456 1456 1457 1458 1459 1460 1461 1462 1463
1462 1461 1459 1457 1456 1455 1453 1452 1451 1450 1450 1449 1449 1449 1449 1449 1449 1449 1450 1450 1450 1450 1448 1448 1449 1449 1449 1448 1448 1448 1448 1447 1447 1447 1447 1448 1448 1449 1450 1450 1451 1453 1454
1460 1459 1457 1456 1454 1452 1451 1449 1448 1447 1446 1446 1445 1445 1444 1444 1444 1444 1444 1445 1445 1445 1443 1442 1443 1442 1442 1442 1441 1441 1440 1440 1439 1439 1439 1439 1439 1439 1440 1441 1442 1443 1444
1459 1457 1455 1454 1452 1450 1448 1447 1445 1444 1443 1443 1442 1441 1441 1441 1440 1440 1440 1440 1440 1439 1439 1437 1436 1436 1435 1435 1434 1433 1433 1432 1431 1431 1430 1430 1430 1430 1431 1431 1433 1434 1434
1457 1455 1454 1452 1450 1448 1447 1445 1444 1442 1441 1440 1440 1439 1438 1438 1437 1437 1436 1435 1435 1434 1434 1432 1430 1430 1429 1429 1428 1427 1426 1425 1424 1423 1422 1422 1421 1421 1421 1422 1422 1423 1424
1456 1454 1452 1451 1449 1447 1445 1444 1442 1441 1439 1438 1437 1436 1436 1435 1434 1433 1433 1432 1431 1430 1429 1428 1426 1425 1424 1423 1421 1420 1418 1417 1416 1415 1415 1414 1413 1412 1412 1413 1413 1414 1415
1455 1453 1451 1449 1448 1446 1444 1442 1441 1439 1438 1436 1436 1435 1433 1432 1432 1431 1430 1429 1428 1426 1425 1423 1422 1420 1419 1417 1416 1414 1412 1410 1409 1408 1406 1406 1405 1404 1403 1404 1404 1404 1405
1453 1452 1450 1448 1446 1444 1443 1441 1440 1438 1436 1435 1434 1432 1431 1430 1429 1428 1427 1426 1424 1423 1421 1419 1418 1416 1414 1413 1411 1409 1407 1404 1402 1402 1399 1397 1397 1396 1395 1395 1395 1395 1395
1452 1451 1449 1447 1445 1443 1442 1440 1439 1437 1435 1434 1432 1431 1429 1428 1427 1425 1423 1422 1421 1419 1418 1416 1414 1412 1410 1408 1407 1404 1402 1400 1397 1395 1393 1389 1389 1388 1387 1387 1387 1386 1386
1451 1449 1448 1446 1444 1442 1441 1439 1437 1436 1434 1432 1430 1429 1427 1425 1424 1422 1420 1419 1417 1415 1414 1412 1410 1408 1406 1404 1402 1400 1397 1394 1391 1390 1388 1384 1381 1380 1379 1378 1378 1377 1377
1449 1448 1446 1445 1443 1441 1439 1438 1436 1434 1432 1430 1428 1426 1425 1423 1421 1420 1418 1416 1414 1411 1410 1408 1406 1404 1401 1399 1397 1395 1392 1389 1384 1383 1382 1379 1375 1372 1370 1369 1370 1369 1369
1448 1446 1445 1443 1442 1440 1438 1436 1434 1432 1430 1428 1426 1424 1422 1421 1419 1417 1415 1413 1410 1408 1405 1403 1401 1399 1397 1394 1392 1390 1387 1385 1381 1378 1376 1375 1371 1369 1363 1361 1362 1362 1361